Simultaneous Nadir Overpasses (SNOs) Predictions

Prediction of SNOs between GOES-17 and METOP-C Satellite Orbit:

Table of predicted SNOs for the next 14.0 days since TLE Epoch: 8/5/2023
Index Date Time (GOES-17) GOES-17 Lat,Lon METOP-C Lat,Lon Distance(km) Time Diff (sec)
1 08/05/2023 04:21:10 -0.00,-104.70 0.32,-103.25 164.55 80
2 08/06/2023 16:40:03 0.00,-104.73 0.68,-107.83 352.81 80
3 08/07/2023 16:22:04 0.00,-104.73 -0.42,-102.83 216.35 80
4 08/09/2023 04:41:03 -0.00,-104.70 -0.62,-107.43 310.29 80
5 08/10/2023 04:17:43 -0.00,-104.70 0.49,-102.43 258.47 80
6 08/11/2023 16:36:37 0.00,-104.73 0.50,-107.01 259.37 80
7 08/12/2023 16:18:37 0.00,-104.73 -0.61,-102.01 309.79 80
8 08/14/2023 04:37:37 -0.00,-104.71 -0.42,-106.61 216.39 80
9 08/15/2023 04:14:17 -0.01,-104.71 0.70,-101.62 352.63 80
10 08/16/2023 16:33:09 0.01,-104.73 0.33,-106.18 165.03 80
11 08/17/2023 16:15:10 0.01,-104.74 -0.78,-101.19 404.58 80
